Date,TemperatureHighF,TemperatureAvgF,TemperatureLowF,DewpointHighF,DewpointAvgF,DewpointLowF,HumidityHigh,HumidityAvg,HumidityLow,PressureMaxIn,PressureMinIn,WindSpeedMaxMPH,WindSpeedAvgMPH,GustSpeedMaxMPH,PrecipitationSumIn
2012-1-1,49.8,44.4,36.0,46.6,40.7,34.5,97,87,72,29.49,29.37,19,13,37,0.31
2012-1-2,46.8,41.3,36.5,45.7,38.6,34.9,97,90,79,29.61,29.10,18,11,35,0.53
2012-1-3,53.6,44.8,39.4,52.0,40.7,35.1,99,85,71,29.97,28.98,32,16,59,0.20
2012-1-4,50.9,46.9,42.1,50.0,44.8,39.2,97,93,84,30.08,29.65,24,16,45,0.68
2012-1-5,51.1,48.5,43.7,50.2,43.2,39.9,97,82,73,30.29,29.64,20,12,41,0.02
2012-1-6,51.4,48.9,44.4,51.3,47.7,41.2,99,96,87,30.32,30.14,18,10,31,0.17
2012-1-7,48.7,47.2,45.9,47.5,43.4,41.5,98,87,79,30.35,30.18,12,7,22,0.00
2012-1-8,50.9,49.8,48.2,50.5,48.9,47.3,99,97,91,30.36,30.26,16,9,30,0.04
2012-1-9,50.4,48.6,46.9,49.8,45.7,41.9,99,90,80,30.42,30.24,15,7,27,0.06
2012-1-10,51.1,50.1,47.7,50.7,49.6,44.4,100,98,86,30.41,30.34,14,10,26,0.24
2012-1-11,51.4,50.3,48.4,51.4,50.1,48.2,100,99,98,30.44,30.31,19,9,30,0.07
2012-1-12,51.1,48.5,43.5,50.5,47.3,42.4,99,96,87,30.53,30.32,18,5,30,0.05
2012-1-13,48.2,46.6,44.8,48.0,46.2,43.9,99,98,97,30.54,30.38,7,2,15,0.02
2012-1-14,48.6,44.9,42.6,43.7,41.8,40.6,97,89,78,30.37,30.02,10,5,22,0.01
2012-1-15,46.2,43.5,39.6,41.2,38.7,36.1,89,83,77,30.08,29.98,11,5,24,0.00
2012-1-16,47.8,43.4,38.5,44.8,41.0,35.6,96,91,87,30.11,30.06,8,5,20,0.00
2012-1-17,52.5,49.2,46.2,52.3,47.9,44.4,99,95,90,30.09,29.99,17,7,29,0.25
2012-1-18,52.7,48.7,45.3,52.3,47.2,44.2,99,95,85,30.20,30.00,14,6,27,0.08
2012-1-19,47.8,44.5,42.1,46.0,42.0,38.3,97,91,81,30.24,30.08,15,8,36,0.09
2012-1-20,51.8,49.6,45.3,51.3,48.1,41.9,98,95,85,30.24,30.04,17,13,31,0.08
2012-1-21,50.9,48.2,45.9,50.4,44.3,40.3,98,87,76,30.09,29.98,19,12,35,0.02
2012-1-22,50.7,47.7,44.1,48.2,42.5,39.0,94,82,65,30.13,29.97,20,10,33,0.00
2012-1-23,50.4,46.0,43.9,50.0,44.3,42.3,99,94,89,30.16,30.02,14,4,24,0.06
2012-1-24,52.0,51.0,49.5,51.6,50.4,48.4,99,98,89,30.02,29.82,16,11,28,0.50
2012-1-25,51.8,46.6,38.3,49.1,44.3,36.7,96,92,83,29.81,29.42,14,9,31,0.46
2012-1-26,45.1,39.7,36.1,40.1,37.7,34.9,96,92,81,29.93,29.41,13,7,31,0.29
2012-1-27,47.8,41.2,36.1,41.7,37.2,33.8,96,86,71,30.37,29.93,11,6,22,0.01
2012-1-28,47.7,42.1,34.5,47.3,41.1,32.5,99,96,85,30.44,30.36,8,3,15,0.46
2012-1-29,52.2,49.1,47.1,51.1,48.3,46.6,100,97,87,30.36,30.17,9,4,15,0.19
2012-1-30,47.1,45.7,42.4,46.8,44.8,41.2,99,97,92,30.17,30.05,8,5,21,0.18
2012-1-31,43.2,40.9,36.3,41.2,38.3,33.4,96,91,82,30.44,30.06,7,4,18,0.04
2012-2-1,40.8,36.9,30.4,34.7,32.0,28.6,94,83,71,30.61,30.44,6,3,15,0.00
2012-2-2,40.8,33.4,27.7,32.9,29.5,26.4,96,86,68,30.61,30.55,7,3,15,0.00
2012-2-3,45.3,40.0,32.7,43.0,36.5,29.5,95,87,83,30.59,30.48,8,6,18,0.01
2012-2-4,50.2,46.4,42.4,48.9,43.9,37.6,97,91,82,30.48,30.22,16,8,33,0.20
2012-2-5,49.6,45.4,41.7,49.3,43.2,37.6,99,92,84,30.45,30.35,7,4,12,0.02
2012-2-6,52.5,49.7,48.2,51.8,49.3,48.0,99,98,96,30.56,30.45,7,3,10,0.01
2012-2-7,49.6,47.5,45.7,47.8,45.9,44.1,100,94,89,30.58,30.52,9,5,19,0.00
2012-2-8,47.5,46.6,45.1,45.7,45.0,44.1,96,94,90,30.55,30.50,11,7,22,0.51
2012-2-9,51.6,49.1,46.6,50.9,48.3,45.3,99,97,95,30.56,30.50,11,5,16,0.05
2012-2-10,52.3,50.3,49.3,51.3,49.8,48.2,100,98,95,30.50,30.41,9,6,16,0.10
2012-2-11,50.9,45.6,40.3,48.6,44.4,39.4,99,96,89,30.55,30.41,9,2,16,0.02
2012-2-12,50.0,43.6,38.5,48.2,42.7,37.8,100,97,91,30.65,30.54,6,2,11,0.02
2012-2-13,50.2,45.9,42.3,47.3,43.4,40.6,97,91,83,30.64,30.55,10,6,23,0.01
2012-2-14,49.1,46.7,43.7,45.3,43.0,39.6,91,87,81,30.62,30.56,8,5,19,0.00
2012-2-15,50.7,48.2,46.2,45.9,44.1,41.7,96,86,77,30.62,30.54,12,5,22,0.01
2012-2-16,50.5,49.0,46.9,50.0,47.0,42.3,99,93,82,30.54,30.29,15,9,25,0.06
2012-2-17,51.4,49.7,47.5,51.1,49.2,46.0,100,98,95,30.29,29.87,16,11,27,0.13
2012-2-18,48.7,42.6,35.4,48.0,39.2,33.6,98,88,61,30.19,29.69,20,9,35,0.25
2012-2-19,49.3,41.9,34.9,41.9,37.5,33.1,94,85,65,30.39,30.20,11,6,21,0.01
2012-2-20,51.1,48.4,43.3,50.0,46.4,40.6,98,93,86,30.35,30.15,15,10,29,0.12
2012-2-21,53.1,51.5,50.2,51.4,49.7,47.5,99,94,82,30.15,30.01,16,11,31,0.12
2012-2-22,54.3,52.8,51.6,54.1,52.2,51.1,99,98,96,30.06,29.80,21,13,38,0.48
2012-2-23,52.9,51.5,50.7,52.3,51.3,50.5,100,99,98,30.20,30.06,19,14,33,0.07
2012-2-24,52.0,48.8,42.6,51.3,45.6,38.7,100,89,71,30.43,30.19,12,4,23,0.06
2012-2-25,51.6,45.6,38.5,48.0,43.2,36.7,97,92,83,30.42,30.35,10,4,16,0.00
2012-2-26,51.3,48.9,45.3,50.4,48.2,44.4,99,97,93,30.37,30.19,16,7,28,0.09
2012-2-27,51.6,50.7,50.2,51.1,50.4,49.5,100,99,97,30.20,30.14,15,10,26,0.08
2012-2-28,53.2,50.9,49.8,51.1,49.0,46.9,100,93,83,30.20,30.15,11,7,17,0.02
2012-2-29,53.2,51.0,48.6,49.3,48.2,46.8,96,90,82,30.14,30.02,8,5,20,0.00
2012-3-1,54.7,49.4,42.4,48.9,46.2,41.2,97,89,69,30.27,30.06,11,5,20,0.01
2012-3-2,55.0,49.4,44.2,48.0,46.3,42.1,97,89,76,30.25,29.74,15,7,27,0.01
2012-3-3,52.3,45.3,36.0,48.4,41.6,34.7,96,87,63,30.01,29.65,13,8,28,0.33
2012-3-4,49.3,40.3,33.3,39.2,36.2,32.5,97,86,63,30.36,30.01,12,6,22,0.02
2012-3-5,51.6,44.2,38.5,44.6,40.1,36.0,93,86,71,30.43,30.30,10,4,16,0.02
2012-3-6,53.1,47.8,41.9,52.0,46.1,38.7,98,94,83,30.30,29.81,17,9,33,0.24
2012-3-7,51.6,44.6,40.5,51.1,40.9,36.1,98,87,67,30.25,29.79,20,11,41,0.13
2012-3-8,53.4,49.3,42.8,49.3,45.8,39.7,93,88,82,30.38,30.26,16,11,29,0.00
2012-3-9,52.2,51.1,50.4,51.1,50.4,49.3,99,97,90,30.54,30.32,15,11,28,0.05
2012-3-10,53.8,50.1,47.1,52.3,49.6,46.6,100,98,94,30.72,30.53,16,8,24,0.03
2012-3-11,52.5,49.4,47.1,50.7,47.9,46.0,99,95,89,30.71,30.61,8,4,14,0.02
2012-3-12,54.5,49.8,47.8,47.5,45.8,44.6,91,86,74,30.61,30.52,5,2,10,0.00
2012-3-13,54.7,49.4,45.5,47.3,45.4,43.5,94,86,73,30.53,30.43,5,2,11,0.00
2012-3-14,54.7,49.7,45.7,47.7,45.8,43.0,95,86,75,30.43,30.24,9,5,15,0.00
2012-3-15,53.2,50.0,46.0,52.2,47.7,42.6,97,92,87,30.24,29.93,12,6,22,0.03
2012-3-16,53.4,48.3,40.6,51.3,45.8,38.5,98,91,78,29.92,29.79,15,7,26,0.25
2012-3-17,48.6,42.4,37.6,43.0,40.1,36.7,98,92,79,29.96,29.78,9,3,18,0.09
2012-3-18,52.9,44.4,37.8,45.5,39.6,34.9,95,83,67,30.38,29.97,9,4,18,0.03
2012-3-19,54.0,49.7,39.9,49.5,45.7,37.9,93,86,81,30.42,30.36,20,11,32,0.00
2012-3-20,54.5,51.6,50.2,49.1,47.3,45.3,94,85,73,30.47,30.41,15,10,27,0.00
2012-3-21,53.2,50.6,47.7,46.8,45.3,42.1,91,82,74,30.46,30.41,8,5,19,0.00
2012-3-22,60.6,49.8,37.9,48.9,43.7,36.3,95,80,62,30.41,30.18,8,4,19,0.01
2012-3-23,54.9,50.3,45.0,48.6,46.2,43.2,95,86,75,30.18,30.11,10,5,22,0.01
2012-3-24,61.5,53.6,45.9,50.9,47.1,42.8,91,79,65,30.25,30.14,9,4,23,0.00
2012-3-25,67.3,56.6,47.8,52.9,49.6,46.0,96,78,57,30.48,30.26,6,4,17,0.00
2012-3-26,68.2,54.9,41.9,51.8,46.4,40.3,96,75,42,30.53,30.46,6,3,14,0.00
2012-3-27,68.5,55.6,43.2,51.8,44.1,36.9,96,69,32,30.58,30.52,6,2,17,0.00
2012-3-28,67.1,53.5,40.3,48.7,43.0,37.8,95,71,39,30.59,30.51,5,2,12,0.00
2012-3-29,65.1,53.1,45.9,50.4,44.6,39.7,92,75,43,30.56,30.48,7,4,16,0.00
2012-3-30,53.1,50.0,45.9,48.7,46.9,44.1,94,89,84,30.50,30.32,6,4,15,0.00
2012-3-31,54.7,50.4,46.6,46.8,45.4,43.9,93,83,71,30.32,30.22,9,5,21,0.00
2012-4-1,55.8,48.1,39.6,46.2,41.9,38.1,95,80,59,30.27,30.07,5,2,10,0.00
2012-4-2,55.9,48.9,44.2,46.6,44.8,40.3,96,86,59,30.07,29.82,4,2,8,0.00
2012-4-3,48.0,44.2,37.8,45.0,38.6,31.3,94,81,57,30.04,29.71,15,9,31,0.07
2012-4-4,48.6,41.6,36.0,33.1,30.9,27.9,81,66,46,30.30,30.05,15,10,31,0.00
2012-4-5,53.8,43.6,31.8,45.1,35.8,27.9,93,75,58,30.31,30.22,10,5,18,0.00
2012-4-6,55.8,47.5,38.5,48.4,44.1,37.0,97,88,72,30.25,30.02,7,3,15,0.00
2012-4-7,56.1,51.9,47.8,53.2,49.3,46.2,97,91,83,30.13,30.02,9,5,18,0.01
2012-4-8,52.5,48.9,44.6,50.0,46.5,42.6,98,91,81,30.12,29.65,13,6,23,0.11
2012-4-9,51.1,46.1,39.9,49.1,44.4,38.1,98,94,82,29.64,29.03,14,8,27,0.52
2012-4-10,53.8,45.1,38.7,43.9,39.9,36.9,94,83,64,29.36,29.09,11,6,22,0.03
2012-4-11,55.6,47.6,39.0,43.3,40.6,36.9,93,78,56,29.69,29.36,10,4,23,0.01
2012-4-12,54.9,47.0,42.3,45.3,41.9,38.8,92,83,67,29.75,29.68,8,4,19,0.13
2012-4-13,54.9,45.7,38.8,42.1,38.8,35.8,93,78,52,29.79,29.70,9,3,18,0.02
2012-4-14,53.6,44.7,37.6,40.5,36.4,30.0,95,75,41,30.15,29.80,12,5,23,0.02
2012-4-15,52.2,43.7,35.1,38.8,35.8,31.6,95,75,48,30.34,30.16,9,3,16,0.00
2012-4-16,52.3,48.0,45.0,50.7,43.4,37.6,97,84,72,30.30,29.50,20,7,36,0.30
2012-4-17,48.7,44.8,39.9,45.3,42.4,38.1,97,91,83,29.55,28.82,20,10,35,0.61
2012-4-18,54.5,46.9,42.6,46.2,43.2,41.7,97,87,64,29.23,28.91,11,6,22,0.16
2012-4-19,56.3,47.8,41.4,45.0,42.1,39.4,96,81,56,29.38,29.23,9,5,19,0.02
2012-4-20,54.0,46.1,39.0,47.5,40.5,36.0,90,81,66,29.43,29.31,13,6,21,0.04
2012-4-21,56.7,47.9,41.2,45.3,41.4,38.3,90,79,59,29.60,29.44,15,7,22,0.01
2012-4-22,55.4,48.1,41.9,48.4,44.1,39.9,94,86,73,29.62,29.48,11,6,21,0.11
2012-4-23,56.1,47.0,39.9,46.4,42.6,38.8,97,86,61,29.59,29.38,9,4,21,0.04
2012-4-24,58.1,48.9,43.3,44.1,41.7,38.7,95,78,52,29.60,29.30,8,3,18,0.01
2012-4-25,49.5,44.9,39.7,44.8,41.6,38.3,95,88,77,29.29,29.06,20,12,35,0.23
2012-4-26,52.7,48.1,44.1,43.7,41.9,39.2,87,79,70,29.80,29.17,15,11,31,0.00
2012-4-27,50.7,44.2,40.6,39.2,36.8,31.8,85,76,48,29.99,29.80,12,8,25,0.00
2012-5-31,59.4,58.0,57.2,58.6,57.3,56.5,99,98,97,30.12,30.06,8,5,13,0.43
2012-6-1,73.0,62.6,57.0,63.3,59.6,56.7,100,91,71,30.13,30.01,6,3,11,0.01
2012-6-2,63.3,59.8,54.9,60.1,57.1,53.8,98,91,81,30.01,29.72,7,4,19,0.33
2012-6-3,55.2,52.9,50.4,54.7,50.9,48.6,98,93,85,29.98,29.69,8,5,19,0.45
2012-6-4,62.8,55.3,49.3,49.1,47.1,42.6,94,76,54,30.06,29.97,7,3,16,0.02
2012-6-5,60.4,53.2,48.4,59.2,51.6,46.0,98,94,85,29.97,29.54,7,4,14,0.24
2012-6-6,65.8,58.5,52.0,55.2,53.1,50.2,97,83,62,29.54,29.41,8,3,12,0.00
2012-6-7,56.8,54.3,52.9,54.3,53.1,51.1,98,96,90,29.41,29.13,12,6,29,1.14
2012-6-8,55.8,52.5,48.7,51.3,48.7,44.1,95,87,70,29.74,29.20,16,10,28,0.24
2012-6-9,61.9,54.3,47.1,49.1,46.1,43.3,89,75,56,29.84,29.74,9,6,17,0.00
2012-6-10,64.8,55.2,45.0,49.6,46.7,42.3,97,75,45,29.84,29.70,8,3,12,0.00
2012-6-11,65.7,57.1,52.2,55.8,51.8,49.1,92,83,61,29.80,29.69,11,4,20,0.00
2012-6-12,60.6,56.0,51.1,52.9,50.3,46.4,93,82,65,29.98,29.80,8,6,18,0.00
2012-6-13,61.5,55.2,50.2,52.9,49.5,46.9,94,82,62,29.99,29.93,7,4,15,0.02
2012-6-14,58.3,53.0,48.9,52.0,50.2,47.8,97,90,70,29.93,29.47,11,6,30,0.21
2012-6-15,61.3,56.6,52.2,57.4,54.0,50.2,97,91,82,29.46,29.23,11,8,28,0.14
2012-6-16,57.0,53.9,49.5,54.5,51.6,47.5,98,92,81,29.87,29.30,11,6,25,0.05
2012-6-17,63.0,53.6,45.1,48.7,45.8,41.9,95,76,49,30.02,29.88,7,3,12,0.01
2012-6-18,57.9,52.5,48.6,53.8,49.5,46.2,98,90,74,29.99,29.92,9,4,17,0.15
2012-6-19,64.9,56.4,46.8,51.6,48.6,44.8,96,77,55,30.02,29.97,7,3,14,0.01
2012-6-20,65.1,57.6,53.1,56.3,53.5,50.9,95,86,71,30.01,29.83,9,4,16,0.09
2012-6-21,59.4,54.7,51.3,56.5,53.3,50.5,98,95,88,29.83,29.54,8,3,14,0.38
2012-6-22,61.3,56.1,52.2,55.0,52.0,49.5,96,87,68,29.91,29.61,16,9,27,0.02
2012-6-23,58.3,55.9,54.0,55.6,53.7,52.0,98,92,88,29.94,29.82,13,8,23,0.11
2012-6-24,66.9,58.7,53.1,57.6,53.5,50.7,98,84,60,30.04,29.82,7,4,14,0.01
2012-6-25,70.0,60.1,51.3,56.7,53.2,49.8,96,79,60,30.06,29.97,7,2,16,0.00
2012-6-26,63.0,59.4,56.8,61.0,58.4,55.0,99,96,86,29.98,29.92,13,7,25,0.18
2012-6-27,70.3,62.9,59.2,66.0,61.2,59.0,99,94,84,29.98,29.73,9,5,19,0.46
2012-6-28,63.9,60.6,58.6,61.3,58.3,54.9,98,92,76,29.72,29.28,14,6,23,0.38
2012-6-29,59.5,57.8,55.8,58.5,56.3,54.5,97,95,92,29.31,29.23,13,8,23,0.05
2012-6-30,58.8,53.6,51.4,52.7,50.7,48.6,97,90,70,29.78,29.49,13,7,30,0.17
2012-7-1,58.8,55.2,49.5,58.3,52.6,47.1,99,91,75,29.85,29.69,9,6,18,0.17
2012-7-2,65.3,60.2,57.4,61.5,58.6,56.3,99,94,86,29.76,29.67,11,5,17,0.13
2012-7-3,63.1,59.4,55.8,62.6,58.3,54.1,99,96,93,29.75,29.60,9,5,15,0.33
2012-7-4,64.2,59.3,55.4,61.2,56.8,53.8,96,92,82,29.75,29.59,5,3,11,0.28
2012-7-5,67.3,60.9,54.9,59.7,57.3,54.3,99,88,73,29.85,29.75,4,2,12,0.00
2012-7-6,68.4,62.0,56.5,64.2,60.2,56.3,99,94,83,29.87,29.79,8,4,19,0.03
2012-7-7,66.2,61.7,57.0,61.9,59.3,55.0,97,92,84,29.86,29.76,11,7,23,0.02
2012-7-8,59.5,56.6,54.0,55.6,53.9,50.4,95,91,84,29.93,29.85,10,6,19,0.00
2012-7-9,62.1,55.5,51.6,56.5,52.6,49.5,95,90,82,29.99,29.89,10,6,24,0.02
2012-7-10,64.0,57.0,51.3,57.7,52.4,47.3,92,85,75,29.99,29.92,10,5,20,0.01
2012-7-11,62.2,55.6,50.2,50.7,48.3,45.3,95,77,58,29.95,29.92,10,5,19,0.01
2012-7-12,58.8,54.5,48.2,54.7,50.4,45.7,96,86,71,29.95,29.65,7,4,21,0.03
2012-7-13,64.2,56.3,51.4,54.0,52.1,49.8,99,87,66,29.70,29.61,8,4,21,0.27
2012-7-14,60.1,55.3,50.7,50.7,48.4,45.5,90,78,63,29.94,29.71,8,5,17,0.00
2012-7-15,63.5,56.6,48.4,57.4,52.4,45.7,96,86,68,29.99,29.94,12,6,21,0.03
2012-7-16,63.3,59.2,56.3,61.0,57.9,55.2,99,95,87,30.14,29.86,15,8,27,0.39
2012-7-17,61.3,59.5,55.9,61.0,59.1,55.4,99,99,97,30.15,29.90,15,9,28,0.17
2012-7-18,65.5,59.1,55.9,60.3,56.8,53.2,98,92,74,29.94,29.81,13,7,24,0.03
2012-7-19,62.2,57.0,51.6,53.8,50.8,49.1,93,80,67,30.02,29.86,7,4,13,0.00
2012-7-20,64.8,57.4,51.6,52.7,49.8,46.0,92,77,60,30.20,30.03,5,2,11,0.00
2012-7-21,65.8,58.4,49.8,56.5,52.7,48.0,96,82,60,30.22,30.17,10,4,18,0.00
2012-7-22,69.1,63.5,58.5,63.9,60.4,53.6,98,90,82,30.18,30.01,12,8,26,0.20
2012-7-23,62.8,61.2,57.4,62.0,60.6,56.7,100,98,95,30.03,29.95,10,5,19,0.71
2012-7-24,62.9,58.8,56.1,59.7,57.2,55.4,99,94,81,30.11,30.01,8,2,18,0.57
2012-7-25,69.4,61.2,54.1,59.4,56.5,52.9,98,85,66,30.17,30.11,6,3,12,0.00
2012-7-26,68.5,60.2,54.0,59.8,54.5,52.2,96,82,61,30.17,30.08,10,4,17,0.00
2012-7-27,65.7,58.5,51.4,57.2,51.3,48.2,96,78,62,30.09,30.00,10,6,22,0.02
2012-7-28,63.3,56.0,50.2,53.2,50.2,46.2,93,81,63,30.00,29.87,10,6,19,0.00
2012-7-29,62.4,54.8,48.7,53.8,49.1,45.1,90,81,66,29.97,29.86,12,6,21,0.05
2012-7-30,65.7,57.5,49.5,53.8,50.2,45.7,93,78,49,29.97,29.85,7,4,13,0.00
2012-7-31,62.1,58.9,55.6,61.2,57.4,52.7,98,95,85,29.85,29.46,10,5,23,0.55
2012-8-1,64.6,60.4,56.7,60.1,57.0,53.4,98,89,69,29.58,29.29,17,8,29,0.20
2012-8-2,63.9,58.6,54.5,57.2,54.6,52.3,95,87,74,29.61,29.57,9,6,21,0.06
2012-8-3,64.8,59.3,55.9,59.7,56.8,54.9,97,92,78,29.61,29.55,9,5,22,0.46
2012-8-4,67.6,61.1,55.9,60.3,57.4,55.2,98,88,72,29.76,29.59,13,7,26,0.02
2012-8-5,61.0,57.4,54.9,57.2,54.1,51.4,96,89,79,29.80,29.76,9,5,18,0.02
2012-8-6,64.4,57.4,50.5,59.5,53.7,46.8,95,88,76,29.93,29.79,9,4,17,0.00
2012-8-7,67.3,61.1,55.8,61.0,57.6,54.0,96,89,76,30.13,29.93,6,2,10,0.00
2012-8-8,72.7,64.2,58.3,64.4,61.0,57.9,99,90,70,30.26,30.13,9,2,13,0.00
2012-8-9,75.7,66.7,59.2,66.9,62.8,58.6,99,88,68,30.32,30.26,5,2,12,0.00
2012-8-10,79.5,68.4,58.5,67.3,61.8,57.9,99,81,55,30.32,30.14,7,4,15,0.00
2012-8-11,69.8,65.4,59.4,62.2,59.9,56.3,91,83,75,30.14,29.82,8,5,20,0.00
2012-8-12,71.2,63.5,59.7,64.0,60.6,58.6,98,91,75,29.82,29.59,9,4,15,0.48
2012-8-13,67.5,63.0,59.2,62.4,60.3,58.1,98,91,80,29.61,29.47,12,6,22,0.16
2012-8-14,70.9,64.2,60.1,62.6,58.9,57.7,93,84,65,29.68,29.60,7,4,16,0.00
2012-8-15,66.6,62.6,58.3,62.6,59.3,56.4,96,89,74,29.65,29.02,14,8,37,0.39
2012-8-16,68.7,61.3,56.7,60.6,57.8,54.3,97,89,70,29.64,29.14,11,6,28,0.34
2012-8-17,70.0,62.4,56.5,63.5,59.6,56.1,99,91,68,29.65,29.56,8,2,18,0.04
2012-8-18,71.4,64.2,57.6,62.4,59.5,55.8,97,85,69,29.89,29.65,11,6,21,0.00
2012-8-19,69.3,63.2,60.1,64.4,60.5,58.3,97,91,80,29.91,29.86,8,5,20,0.46
2012-8-20,66.6,61.9,59.4,63.1,59.6,57.4,96,93,85,30.03,29.88,11,7,21,0.02
2012-8-21,64.9,59.7,56.5,59.4,57.0,55.2,97,91,79,30.02,29.87,14,7,25,0.29
2012-8-22,65.5,59.6,55.9,59.5,56.8,54.3,96,91,77,29.99,29.92,16,9,28,0.24
2012-8-23,63.9,59.1,56.3,58.5,56.0,53.8,97,90,80,29.96,29.68,8,5,17,0.18
2012-8-24,60.3,57.4,55.0,58.1,55.8,54.1,98,95,89,29.67,29.45,8,5,22,0.21
2012-8-25,65.7,59.4,53.1,57.2,54.7,49.8,96,85,63,29.92,29.53,8,5,18,0.00
2012-8-26,64.2,57.7,48.7,59.4,54.4,47.8,98,89,75,29.95,29.67,10,4,24,0.10
2012-8-27,65.1,60.6,55.6,60.6,58.3,51.6,98,92,83,29.66,29.49,15,9,27,0.24
2012-8-28,65.7,59.9,55.8,56.1,53.9,52.0,89,81,66,29.75,29.53,12,8,27,0.02
2012-8-29,62.8,57.6,53.1,60.3,55.1,50.4,96,92,87,29.87,29.47,14,7,25,0.48
2012-8-30,64.4,56.9,51.1,54.0,48.7,45.1,92,75,53,30.44,29.88,10,5,24,0.00
2012-8-31,64.6,58.5,52.2,60.3,55.8,48.4,98,91,80,30.45,30.34,13,7,25,0.07
2012-9-1,62.8,60.3,59.0,60.4,58.4,56.8,99,94,86,30.34,30.09,19,10,32,0.35
2012-9-2,64.6,59.9,55.6,60.1,57.2,55.0,99,91,78,30.34,30.13,9,4,14,0.01
2012-9-3,68.4,60.7,55.2,64.8,58.7,53.6,99,93,84,30.34,30.17,13,6,23,0.10
2012-9-4,66.4,58.4,51.1,60.8,53.5,48.2,99,85,61,30.41,30.20,7,3,15,0.01
2012-9-5,65.5,56.2,46.8,55.2,51.0,46.0,98,84,64,30.48,30.40,5,2,9,0.00
2012-9-6,62.6,58.4,50.7,58.3,55.4,49.6,98,90,80,30.41,30.24,16,9,29,0.00
2012-9-7,61.5,60.1,58.5,61.2,59.6,57.9,99,98,97,30.26,30.21,11,5,24,0.05
2012-9-8,63.7,59.3,53.1,60.3,57.3,52.0,100,93,78,30.21,29.83,8,3,15,0.02
2012-9-9,64.6,59.7,55.2,61.5,58.0,53.1,98,94,90,29.82,29.53,12,7,23,0.06
2012-9-10,59.2,53.8,49.1,58.5,52.6,48.0,99,96,89,29.78,29.60,7,3,15,0.26
2012-9-11,58.8,51.9,46.0,52.2,47.4,43.5,96,85,62,30.02,29.79,12,7,23,0.04
2012-9-12,62.2,57.1,50.7,59.0,53.0,46.9,97,87,64,30.18,29.89,10,6,18,0.06
2012-9-13,62.1,57.7,50.5,58.5,55.4,47.3,98,92,85,30.18,29.87,18,10,33,0.12
2012-9-14,64.4,57.9,54.3,58.5,53.5,51.4,98,86,66,30.09,29.87,13,7,23,0.02
2012-9-15,60.6,57.3,55.9,56.7,53.6,51.8,95,87,80,30.09,29.87,13,7,23,0.01
2012-9-16,61.2,57.1,52.0,59.5,53.5,48.4,99,88,69,29.87,29.73,13,8,25,0.41
2012-9-17,60.1,54.1,48.9,53.8,50.2,45.7,93,87,72,29.82,29.76,14,8,28,0.07
2012-9-18,50.4,48.4,46.2,46.2,44.9,42.8,91,88,82,30.22,29.82,8,5,15,0.02
2012-9-19,57.9,52.5,46.9,53.6,49.1,43.5,98,89,72,30.23,30.09,10,5,18,0.10
2012-9-20,59.2,55.8,52.2,56.8,54.3,51.3,98,95,88,30.09,29.98,11,6,21,0.16
2012-9-21,58.6,51.8,46.0,55.9,47.5,43.5,98,86,62,30.15,30.00,7,4,16,0.17
2012-9-22,60.1,49.5,40.6,48.9,44.9,39.6,97,85,63,30.15,29.99,6,2,14,0.00
2012-9-23,62.1,51.8,44.2,53.6,48.6,43.0,96,89,73,29.98,29.53,6,2,17,0.03
2012-9-24,52.5,49.8,47.3,50.0,48.1,46.4,98,94,86,29.53,29.26,6,3,16,0.13
2012-9-25,54.9,51.6,48.4,50.5,49.0,47.5,97,91,81,29.31,29.22,13,8,31,0.11
2012-9-26,59.2,54.5,50.4,52.3,49.8,45.3,90,84,76,29.81,29.32,12,9,31,0.00
2012-9-27,58.6,52.8,48.7,55.4,49.7,45.9,98,89,76,29.86,29.75,12,6,21,0.09
2012-9-28,59.2,53.0,48.6,52.9,49.4,45.7,97,88,73,29.98,29.78,12,8,25,0.05
2012-9-29,59.9,53.6,46.9,55.0,50.0,44.4,96,88,77,30.13,29.92,14,8,34,0.14
2012-9-30,60.3,57.3,52.3,57.9,55.1,50.0,98,92,81,29.91,29.74,15,11,32,0.31
2012-10-1,57.0,53.1,48.9,52.7,49.5,47.3,96,88,75,29.76,29.64,16,9,31,0.25
2012-10-2,56.1,51.5,46.6,51.3,48.5,44.2,95,90,78,29.65,29.42,13,8,32,0.40
2012-10-3,56.1,49.2,45.7,51.4,46.9,44.2,95,92,81,29.62,29.50,13,6,27,0.27
2012-10-4,55.6,48.8,44.2,50.9,46.3,42.6,97,91,77,29.70,29.55,12,4,25,0.16
2012-10-5,56.3,49.2,43.7,52.0,46.1,42.6,96,89,80,29.84,29.55,9,4,15,0.09
2012-10-6,58.3,47.6,38.1,52.0,45.3,37.4,98,92,78,30.13,29.84,6,1,10,0.01
2012-10-7,54.0,46.8,38.5,49.6,44.8,37.9,99,93,82,30.18,30.03,6,3,14,0.02
2012-10-8,56.1,50.4,44.2,51.3,47.8,42.3,97,91,82,30.04,29.95,8,5,18,0.06
2012-10-9,57.4,47.7,39.4,51.3,45.0,38.3,96,91,79,30.04,29.98,6,3,12,0.00
2012-10-10,58.6,52.8,45.7,57.0,51.0,44.2,97,93,87,29.98,29.61,6,2,12,0.01
2012-10-11,57.7,52.3,43.3,56.5,48.4,40.8,97,87,67,29.72,29.54,9,5,19,0.24
2012-10-12,53.8,46.6,43.0,47.8,42.9,39.4,94,87,74,29.72,29.66,9,4,18,0.06
2012-10-13,55.8,47.3,41.7,48.4,43.1,39.7,96,86,70,29.73,29.65,9,4,18,0.02
2012-10-14,55.0,47.4,38.7,50.5,45.3,37.8,98,93,77,29.69,29.64,8,4,16,0.08
2012-10-15,52.0,45.5,38.1,51.1,44.6,37.0,99,97,92,29.68,29.05,18,4,34,0.19
2012-10-16,55.2,48.5,42.1,48.0,44.6,40.6,97,87,66,29.50,29.18,13,5,22,0.11
2012-10-17,54.3,49.3,45.9,51.4,47.8,44.2,98,95,89,29.25,28.98,11,6,27,0.41
2012-10-18,54.0,50.8,48.7,52.5,49.9,48.2,98,97,92,29.60,29.01,7,5,16,0.19
2012-10-19,54.9,50.6,47.7,50.4,48.1,46.4,97,91,79,29.78,29.61,7,4,17,0.00
2012-10-20,59.7,52.2,46.9,52.9,49.4,45.7,97,90,74,29.92,29.77,6,3,14,0.00
2012-10-21,61.2,53.7,47.1,52.7,50.3,45.9,97,89,70,30.06,29.91,8,5,19,0.00
2012-10-22,56.3,51.4,45.7,52.5,49.3,44.6,97,92,86,30.25,30.06,5,2,13,0.00
2012-10-23,55.8,53.8,51.3,54.7,52.7,49.6,98,96,92,30.35,30.25,5,3,11,0.00
2012-10-24,55.2,52.5,49.6,53.1,50.8,48.6,97,94,91,30.34,30.13,10,6,21,0.00
2012-10-25,54.3,51.5,48.7,50.4,48.0,44.4,94,88,79,30.14,30.06,12,9,24,0.00
2012-10-26,48.9,43.9,36.9,44.8,37.2,31.5,91,78,55,30.26,30.10,15,9,30,0.00
2012-10-27,50.4,41.8,33.4,42.8,36.4,30.6,94,82,61,30.41,30.24,7,4,15,0.00
2012-10-28,50.5,48.0,41.4,48.4,45.7,40.3,97,92,84,30.23,29.66,14,8,27,0.42
2012-10-29,52.3,45.5,38.1,49.1,42.8,37.2,99,91,78,29.93,29.70,7,4,18,0.01
2012-10-30,51.3,47.2,41.5,48.2,44.8,38.5,96,91,85,29.89,29.17,17,10,30,0.13
2012-10-31,50.4,43.5,36.3,48.4,41.4,35.4,97,92,79,29.15,28.84,16,4,28,0.58
2012-11-1,45.5,40.9,35.2,43.0,38.6,33.3,95,91,80,29.02,28.84,13,6,25,0.14
2012-11-2,50.5,43.9,38.5,42.1,39.6,36.9,94,85,69,29.24,29.01,13,6,24,0.11
2012-11-3,47.5,42.0,36.1,43.0,39.1,33.8,95,90,72,29.24,29.09,15,9,35,0.56
2012-11-4,47.8,43.4,41.0,45.3,42.0,39.9,98,95,89,29.60,29.04,9,5,22,0.11
2012-11-5,52.0,43.1,35.8,46.6,40.7,35.1,99,91,75,30.18,29.60,6,3,14,0.02
2012-11-6,53.2,48.7,44.1,48.4,45.7,41.5,96,89,82,30.30,30.18,12,7,20,0.00
2012-11-7,53.8,50.3,48.6,52.7,48.4,45.3,98,93,84,30.29,30.12,14,10,29,0.08
2012-11-8,53.8,49.0,45.1,50.4,47.3,44.2,98,94,85,30.15,29.81,15,7,30,0.14
2012-11-9,52.0,47.8,43.3,49.3,45.5,40.5,98,92,79,29.80,29.42,15,7,34,0.36
2012-11-10,48.7,44.1,39.9,43.5,41.6,38.7,96,91,79,29.68,29.34,11,5,20,0.07
2012-11-11,51.1,45.3,40.8,46.0,42.7,38.8,98,91,81,29.97,29.69,9,5,18,0.07
2012-11-12,54.0,52.8,45.5,53.6,52.4,45.0,99,99,98,29.94,29.79,16,9,27,0.13
2012-11-13,54.9,52.6,49.8,54.7,52.3,49.5,100,99,98,30.08,29.85,12,6,23,0.28
2012-11-14,49.8,48.8,47.8,49.5,48.5,47.5,100,99,99,30.23,30.08,5,2,11,0.24
2012-11-15,52.2,47.8,41.4,50.5,47.0,40.5,100,97,86,30.22,30.02,7,2,11,0.03
2012-11-16,48.2,46.5,43.9,47.3,44.3,41.9,98,92,84,30.01,29.78,8,4,18,0.02
2012-11-17,47.3,41.6,37.8,43.0,39.4,36.0,96,92,83,29.86,29.76,11,5,20,0.07
2012-11-18,52.3,43.2,36.3,51.8,41.9,34.2,98,95,90,29.87,29.34,14,6,30,0.30
2012-11-19,53.6,51.8,49.3,53.1,50.9,48.4,98,97,92,29.45,29.23,18,10,31,0.35
2012-11-20,53.1,48.6,44.2,49.8,46.2,42.3,98,91,73,29.59,29.24,23,8,40,0.53
2012-11-21,51.3,46.4,41.7,48.6,44.1,40.1,96,92,81,29.64,29.40,11,7,25,0.13
2012-11-22,50.4,45.9,43.2,49.1,44.0,40.5,96,93,87,29.51,29.25,12,7,25,0.57
2012-11-23,45.9,42.0,39.4,44.1,39.4,36.1,96,90,84,29.91,29.53,14,5,24,0.34
2012-11-24,39.4,36.5,31.5,38.3,35.6,30.7,98,96,92,29.92,29.66,3,1,8,0.02
2012-11-25,39.6,36.5,31.5,38.7,36.1,30.7,99,98,97,29.67,29.52,8,4,17,0.02
2012-11-26,48.0,43.9,40.3,43.0,41.2,38.7,96,90,81,30.03,29.67,11,7,26,0.16
2012-11-27,45.5,41.1,37.8,39.9,37.8,35.8,94,88,75,30.22,30.02,9,6,20,0.00
2012-11-28,46.4,38.7,33.6,40.6,36.6,32.9,97,92,78,30.25,30.18,4,2,9,0.01
2012-11-29,41.4,37.0,32.4,40.5,36.2,31.6,99,97,94,30.18,29.88,5,1,9,0.06
2012-11-30,45.0,41.6,37.8,44.8,41.2,37.0,99,98,97,30.07,29.76,9,3,16,0.05
2012-12-1,45.3,42.1,39.4,43.0,40.5,38.8,99,94,86,30.15,30.06,7,3,10,0.06
2012-12-2,51.1,45.5,40.6,50.7,44.9,39.2,99,98,92,30.09,29.75,11,5,19,0.31
2012-12-3,48.6,42.1,38.7,48.2,40.4,37.2,99,94,88,29.81,29.73,13,6,25,0.07
2012-12-4,46.6,40.8,37.8,42.4,38.9,35.4,96,93,84,29.82,29.63,12,7,24,0.11
2012-12-5,45.0,38.7,35.1,39.6,35.9,33.3,96,90,78,30.06,29.83,9,3,20,0.00
2012-12-6,46.8,43.4,39.0,45.7,41.6,37.2,97,93,85,30.02,29.59,17,10,33,0.69
2012-12-7,48.2,43.0,38.1,42.1,39.2,34.7,93,87,77,30.29,29.68,13,5,23,0.03
2012-12-8,48.7,44.6,37.9,47.3,42.9,35.1,97,94,87,30.37,30.29,10,5,17,0.00
2012-12-9,49.3,45.6,37.9,48.0,44.5,36.9,97,96,93,30.31,30.21,9,4,16,0.02
2012-12-10,40.1,35.7,31.5,37.8,34.3,30.6,98,95,89,30.40,30.28,4,2,13,0.01
2012-12-11,39.2,36.6,32.7,36.7,34.5,30.9,95,92,89,30.39,30.13,7,3,14,0.01
2012-12-12,43.9,41.1,37.0,43.2,39.7,34.7,98,95,91,30.12,29.68,6,3,13,0.11
2012-12-13,43.9,40.9,36.3,42.8,38.7,34.3,96,92,83,29.67,29.07,10,6,23,0.00
2012-12-14,47.7,46.1,43.5,46.8,45.2,42.3,98,97,94,29.07,28.72,12,6,23,0.54
2012-12-15,50.2,47.5,46.2,47.3,45.7,44.6,97,93,87,29.22,28.85,11,7,20,0.16
2012-12-16,47.7,45.6,42.8,46.4,43.9,41.5,96,94,91,29.29,29.14,13,7,24,0.24
2012-12-17,47.7,45.8,43.7,46.4,44.3,42.6,97,94,88,29.84,29.29,16,7,33,0.20
2012-12-18,47.1,42.4,37.2,44.8,41.5,36.1,99,97,90,29.98,29.70,12,4,25,0.01
2012-12-19,49.8,47.8,44.4,49.1,46.7,43.7,98,96,89,29.70,29.52,16,5,32,0.22
2012-12-20,45.7,43.3,41.2,45.5,42.9,40.6,100,99,97,29.60,29.48,3,1,8,0.06
2012-12-21,46.9,44.4,41.2,46.4,44.2,41.0,100,99,98,29.78,29.48,11,4,21,0.16
2012-12-22,54.9,52.6,47.1,54.9,52.2,46.6,100,99,86,29.47,29.05,19,9,37,0.87
2012-12-23,52.2,47.4,43.5,48.0,45.2,42.3,96,92,85,29.52,29.03,33,11,57,0.06
2012-12-24,49.6,45.8,43.5,46.8,44.2,41.7,97,94,88,29.47,29.14,8,5,18,0.12
2012-12-25,47.7,42.9,40.6,45.1,41.8,39.6,98,96,89,29.57,29.12,12,5,22,0.14
2012-12-26,48.2,45.0,42.6,46.4,42.9,40.6,98,93,85,29.60,29.30,21,10,47,0.42
2012-12-27,46.8,44.2,41.2,44.8,42.5,40.3,98,94,84,29.87,29.37,9,5,21,0.66
2012-12-28,55.2,52.8,45.5,52.3,50.2,45.0,99,91,79,29.74,29.22,21,13,45,0.07
2012-12-29,51.3,43.5,37.6,46.0,40.2,35.4,96,88,71,29.45,29.21,21,10,36,0.35
2012-12-30,52.9,46.2,37.2,50.0,44.5,35.4,98,94,89,29.64,29.34,22,14,41,0.69
2012-12-31,52.2,45.3,39.4,50.7,43.6,37.4,97,94,86,29.58,29.23,20,9,36,0.43
2013-1-1,47.8,42.7,38.1,46.4,40.2,36.1,96,91,80,30.08,29.58,10,5,21,0.04